Wind_Speed
19 18 13 17 8 5 12 18 17 17 13 6 7 9 11 5 2 2 1 3 7 8 10 12 14 16 18 19 19 17 16 14 21 29 28 33 35 38 39 39 39 39 35
15 6 6 17 14 15 11 9 8 7 9 6 6 7 7 4 1 1 3 6 8 10 13 16 18 20 23 24 22 20 20 21 20 28 33 35 38 37 39 40 38 36 37
11 14 18 19 12 9 7 7 6 6 6 6 7 5 3 3 3 2 3 7 10 13 16 18 20 22 25 27 24 22 19 21 23 27 32 30 31 35 37 37 35 35 32
5 6 8 4 4 4 4 5 6 7 7 6 4 4 4 3 2 2 5 7 10 13 15 17 20 22 25 27 21 21 20 25 25 28 32 32 31 32 31 32 32 26 27
11 10 9 8 8 7 6 6 7 6 6 5 6 6 8 6 5 6 7 9 12 15 18 20 22 24 27 26 22 23 28 24 28 31 37 37 35 36 36 33 33 31 30
8 7 6 7 7 6 5 4 5 6 6 7 8 8 9 8 7 7 11 14 15 18 20 22 24 29 30 29 25 27 30 32 33 33 36 37 39 38 31 31 33 32 38
8 8 8 8 7 5 4 4 5 7 9 9 10 11 10 10 9 9 16 15 15 17 20 22 23 27 29 29 26 27 31 33 31 30 34 36 37 34 33 34 37 39 35
8 8 7 6 5 5 4 5 5 7 9 11 11 11 11 10 10 12 12 13 16 18 20 22 24 28 29 26 27 27 30 31 30 28 31 33 31 31 31 33 36 39 36
8 7 7 6 6 7 6 6 7 10 11 13 14 14 15 14 11 11 15 18 19 21 21 21 23 27 28 25 26 26 28 31 31 29 28 28 27 26 26 25 28 29 35
5 6 6 5 6 7 8 10 11 13 16 16 16 16 16 15 12 13 17 19 20 20 23 22 23 24 25 25 24 26 29 28 31 32 30 26 24 25 21 21 21 26 27
1 2 1 4 5 8 11 12 14 16 18 17 16 16 17 16 15 15 18 22 21 21 23 23 21 23 23 22 23 22 25 27 30 25 29 29 28 26 22 19 21 22 24
4 5 6 8 10 12 13 13 14 16 17 16 16 17 17 17 16 17 21 22 20 21 22 23 22 22 24 21 21 22 24 24 22 23 25 29 30 30 27 23 23 23 23
11 12 14 14 14 15 14 15 17 17 18 16 15 16 17 16 19 21 21 19 22 24 24 24 22 22 24 23 21 21 23 22 22 22 25 25 29 29 28 27 28 30 28
15 17 17 15 15 14 15 17 18 17 15 14 15 16 16 20 22 22 22 23 25 25 26 25 23 22 22 21 20 18 20 22 24 20 22 24 26 25 26 25 26 23 26
15 14 14 15 15 15 17 16 17 16 15 18 21 19 22 21 23 23 23 26 28 29 29 28 26 24 22 22 21 19 20 20 22 26 29 25 25 27 26 27 30 28 25
12 12 12 13 15 16 19 19 18 18 19 22 23 24 24 25 26 25 26 29 30 29 30 31 29 26 25 25 25 23 20 20 20 23 27 27 25 26 28 27 29 27 30
15 16 18 18 19 19 19 19 21 24 25 24 23 23 24 27 27 28 26 26 28 31 31 29 31 31 29 26 27 27 25 23 22 22 25 24 22 24 28 29 30 31 34
16 16 17 16 17 19 20 23 25 24 25 27 27 29 29 29 29 31 31 29 28 28 28 30 30 31 33 32 30 30 29 27 24 22 23 20 21 22 25 29 31 33 37
18 19 19 20 21 22 24 25 27 28 31 33 34 33 31 30 29 30 30 31 31 30 28 30 31 31 34 37 36 33 34 34 29 27 26 22 21 22 24 26 31 35 36
20 19 20 23 23 24 25 28 31 31 29 29 28 32 31 28 28 29 29 32 33 31 30 28 31 33 35 37 39 41 38 34 32 30 25 25 25 23 24 26 28 32 34
21 22 23 26 28 30 32 33 32 32 33 31 29 25 25 29 31 33 32 31 27 27 26 25 26 25 28 31 33 31 37 36 34 35 35 27 29 31 25 26 27 29 31
23 26 28 29 29 30 32 31 31 32 32 30 30 30 32 32 28 26 26 23 17 16 16 20 25 27 31 33 29 26 29 34 32 35 36 34 33 32 32 26 27 28 30
26 26 25 25 25 25 26 26 28 27 25 24 23 22 21 21 20 17 14 11 14 19 21 26 26 28 34 31 26 25 27 30 31 33 32 31 30 30 28 28 24 26 27
25 26 27 30 32 31 29 28 27 26 23 19 16 19 19 29 36 27 26 25 34 40 40 38 37 29 24 24 23 21 21 20 22 24 28 31 27 25 27 26 21 21 24
30 32 32 32 32 30 25 24 22 23 20 19 15 22 30 35 31 28 32 33 32 22 19 20 17 18 21 22 21 20 20 21 22 22 20 19 19 22 23 24 18 19 20
28 29 31 30 29 26 27 26 22 24 15 19 24 28 25 22 26 27 22 18 16 16 15 18 17 13 11 11 13 16 17 17 17 15 14 15 16 16 13 16 17 18 18
Wind_Direction
356 358 30 299 318 270 247 258 232 227 228 239 281 274 264 237 160 150 2 354 344 344 345 345 342 342 342 336 332 328 321 306 295 300 301 308 304 300 299 297 294 291 290
292 154 247 249 270 259 221 215 214 233 262 239 191 189 169 169 180 21 352 347 351 345 345 344 342 343 343 341 333 326 319 320 306 303 308 312 308 304 300 297 295 291 287
223 242 258 230 205 191 208 236 237 220 171 166 156 168 191 231 242 311 347 338 337 342 342 342 342 340 339 335 328 328 318 314 308 303 302 305 304 305 304 302 298 296 296
152 167 184 166 138 163 184 196 178 169 162 173 198 227 241 249 281 305 321 334 334 334 332 333 335 337 335 334 329 324 321 314 307 305 301 303 303 305 303 303 303 299 295
128 135 143 144 146 160 166 177 193 205 212 236 246 247 242 257 264 294 308 319 319 321 326 333 334 333 330 334 325 323 324 313 309 307 306 306 302 308 303 300 293 298 297
138 147 148 147 150 161 175 211 241 252 264 265 257 257 250 256 259 273 300 306 313 317 325 332 331 336 338 329 323 321 328 326 316 306 307 302 302 303 302 296 291 291 297
163 167 164 162 166 182 207 245 259 263 263 265 269 261 268 276 263 270 296 301 307 309 319 324 327 333 331 329 321 322 329 331 322 312 309 311 308 307 305 296 289 287 288
169 178 188 197 212 238 264 272 277 288 292 287 284 272 279 274 273 292 293 302 309 313 316 322 325 331 332 331 323 326 331 334 331 319 316 315 312 312 305 293 284 284 287
187 197 211 225 234 240 256 274 289 291 294 292 277 270 279 272 280 289 297 307 307 305 308 317 324 331 333 330 328 328 327 340 340 332 324 320 318 315 323 302 283 277 281
214 220 227 233 240 253 270 282 290 293 289 290 277 272 278 283 275 289 301 307 308 301 305 316 324 331 334 336 326 329 333 329 340 352 343 334 337 326 316 311 306 279 278
164 192 243 268 280 284 284 287 295 295 292 291 286 275 281 287 288 295 301 308 304 297 301 310 318 325 333 339 340 333 340 336 337 337 349 356 354 349 334 318 312 300 282
261 268 271 272 277 285 289 293 297 301 303 303 291 279 291 292 298 294 292 302 302 298 302 305 309 320 326 330 338 345 348 349 341 344 344 354 359 356 346 331 320 312 296
265 269 273 276 277 288 290 297 301 303 304 308 300 295 299 296 302 302 302 298 303 298 297 299 301 313 316 324 332 335 348 350 346 346 345 342 351 353 347 347 338 326 311
284 281 276 272 281 284 292 298 297 298 296 296 296 296 296 301 303 306 305 301 301 300 299 292 293 301 306 312 327 338 346 350 351 344 340 340 345 342 341 344 343 341 322
291 285 277 278 285 289 294 294 296 299 297 297 301 300 300 295 304 298 296 301 297 296 294 288 285 288 291 299 308 319 329 339 349 356 354 345 342 345 342 342 345 342 328
300 292 282 281 282 286 295 294 297 293 293 295 292 292 296 298 299 298 296 295 292 289 287 283 278 278 281 288 293 298 309 319 330 341 350 349 342 339 337 337 339 338 337
302 298 287 284 282 284 288 291 296 298 300 300 295 296 295 297 294 301 306 296 289 286 286 288 280 276 279 281 286 291 296 304 314 330 335 333 334 336 337 336 335 341 332
299 300 296 297 295 292 292 294 295 293 295 302 307 304 301 298 293 296 300 300 291 296 291 286 289 287 278 279 280 285 289 294 300 305 314 318 322 327 333 333 333 332 336
297 296 296 294 292 292 292 292 294 297 299 299 301 302 302 301 297 298 300 299 294 294 294 288 288 291 291 281 278 281 290 287 289 292 297 305 313 320 325 329 330 330 334
289 289 293 295 296 295 295 295 296 297 299 301 296 301 306 305 304 305 306 303 296 288 296 291 290 289 295 295 287 277 274 279 286 290 287 294 306 312 317 324 327 328 329
285 292 296 295 294 294 293 293 295 298 300 302 302 303 303 301 301 304 307 305 307 302 299 301 300 297 298 301 290 276 279 279 277 283 283 284 295 304 312 316 320 325 327
287 291 292 291 289 288 290 291 290 291 295 295 296 299 304 303 307 305 307 310 315 316 319 318 318 318 317 315 313 296 290 288 282 280 277 277 285 294 303 310 315 318 324
292 295 298 300 303 304 303 301 295 290 290 294 298 303 307 310 306 302 301 312 311 326 326 325 322 317 317 314 308 304 296 288 286 280 275 276 278 283 293 303 307 311 319
295 296 296 296 298 298 294 292 291 294 296 295 292 299 310 310 299 293 284 294 297 311 314 314 304 300 300 312 314 319 319 318 311 296 280 274 272 284 292 300 304 304 314
291 292 293 296 300 298 294 297 301 296 289 302 316 319 316 310 306 293 298 307 314 320 313 311 302 311 314 309 311 315 316 312 308 305 303 301 299 301 297 293 292 301 310
289 292 295 300 302 302 307 309 314 319 302 308 309 317 312 309 300 304 314 319 323 319 321 317 309 318 327 335 343 344 340 333 329 328 325 309 300 300 302 293 292 299 307
Height
1560 1565 1563 1563 1560 1551 1554 1560 1564 1566 1567 1567 1570 1571 1571 1571 1570 1571 1571 1572 1573 1571 1569 1566 1563 1561 1558 1555 1551 1549 1547 1546 1541 1535 1531 1526 1524 1519 1515 1511 1509 1507 1506
1550 1548 1550 1555 1558 1560 1557 1562 1566 1567 1565 1567 1567 1568 1568 1569 1568 1568 1569 1571 1569 1570 1567 1564 1561 1557 1555 1550 1546 1543 1541 1537 1534 1528 1523 1518 1514 1511 1506 1501 1498 1496 1494
1547 1549 1551 1554 1552 1559 1562 1565 1566 1568 1562 1567 1568 1569 1567 1567 1566 1565 1566 1567 1567 1565 1564 1561 1559 1555 1551 1548 1543 1537 1535 1531 1529 1524 1516 1512 1508 1502 1497 1494 1489 1486 1484
1547 1548 1555 1556 1555 1560 1563 1566 1567 1567 1564 1566 1567 1566 1567 1567 1567 1564 1564 1565 1565 1565 1561 1559 1556 1552 1548 1542 1538 1534 1530 1525 1522 1516 1509 1504 1500 1497 1491 1487 1481 1480 1477
1550 1552 1555 1556 1557 1562 1562 1565 1569 1566 1565 1562 1564 1564 1566 1565 1564 1563 1562 1562 1563 1562 1558 1554 1551 1547 1544 1538 1533 1529 1524 1520 1514 1507 1499 1495 1489 1485 1484 1481 1476 1471 1468
1553 1555 1556 1557 1560 1563 1564 1567 1567 1564 1562 1562 1562 1563 1562 1561 1561 1560 1561 1560 1558 1556 1552 1548 1548 1541 1535 1531 1528 1522 1519 1510 1505 1499 1492 1487 1482 1478 1474 1474 1470 1465 1459
1554 1556 1557 1560 1562 1563 1564 1564 1563 1562 1561 1560 1560 1559 1558 1558 1558 1558 1557 1555 1553 1551 1548 1545 1541 1537 1532 1524 1521 1516 1513 1508 1501 1493 1485 1482 1473 1471 1466 1463 1461 1457 1454
1556 1557 1559 1560 1560 1560 1560 1560 1560 1558 1558 1557 1556 1556 1555 1555 1556 1555 1551 1549 1549 1546 1543 1541 1536 1531 1527 1520 1514 1509 1505 1501 1494 1488 1480 1474 1467 1463 1458 1454 1451 1448 1445
1555 1556 1557 1557 1558 1558 1558 1558 1557 1556 1555 1554 1554 1553 1552 1552 1552 1550 1547 1545 1544 1542 1538 1535 1531 1526 1522 1516 1509 1503 1500 1492 1487 1479 1473 1467 1460 1457 1453 1446 1443 1443 1438
1553 1554 1555 1555 1556 1557 1557 1555 1554 1552 1553 1552 1550 1548 1547 1548 1546 1545 1542 1539 1538 1537 1533 1529 1526 1521 1517 1510 1505 1499 1492 1486 1479 1472 1466 1462 1454 1450 1447 1444 1439 1436 1434
1551 1553 1553 1553 1554 1554 1553 1551 1550 1549 1549 1546 1543 1543 1542 1541 1539 1538 1536 1534 1531 1528 1526 1524 1519 1518 1512 1507 1500 1495 1488 1479 1476 1470 1463 1458 1449 1445 1441 1438 1435 1432 1429
1550 1551 1551 1552 1551 1551 1550 1548 1546 1544 1542 1539 1538 1539 1537 1535 1533 1532 1531 1528 1525 1523 1520 1517 1514 1510 1508 1501 1497 1492 1483 1478 1474 1466 1461 1453 1446 1440 1435 1431 1429 1426 1423
1547 1548 1548 1548 1548 1546 1544 1543 1541 1539 1537 1535 1533 1532 1530 1529 1527 1525 1523 1521 1518 1515 1512 1510 1508 1504 1501 1496 1491 1486 1480 1475 1471 1464 1457 1450 1444 1438 1432 1426 1420 1416 1413
1544 1544 1543 1543 1543 1541 1539 1538 1536 1534 1532 1530 1528 1526 1524 1523 1521 1519 1516 1514 1511 1508 1505 1503 1500 1498 1495 1490 1486 1481 1477 1473 1467 1462 1456 1450 1443 1436 1431 1424 1417 1411 1407
1539 1538 1538 1538 1537 1535 1534 1532 1530 1528 1527 1525 1523 1521 1518 1517 1515 1513 1510 1507 1504 1501 1498 1494 1492 1490 1487 1484 1480 1477 1473 1469 1465 1459 1453 1447 1442 1435 1428 1423 1415 1408 1403
1535 1534 1534 1533 1532 1530 1528 1526 1525 1523 1521 1519 1517 1515 1513 1510 1507 1505 1502 1499 1495 1492 1489 1486 1483 1482 1479 1477 1474 1472 1469 1465 1461 1456 1450 1444 1438 1432 1427 1420 1414 1406 1398
1530 1530 1529 1528 1526 1525 1523 1521 1519 1516 1514 1512 1510 1508 1505 1502 1499 1497 1494 1490 1487 1484 1480 1478 1474 1473 1471 1469 1466 1464 1461 1458 1454 1449 1445 1440 1434 1429 1423 1416 1410 1402 1394
1527 1526 1524 1522 1521 1519 1518 1515 1513 1510 1506 1503 1502 1499 1496 1494 1491 1488 1485 1481 1478 1474 1472 1469 1466 1464 1462 1460 1458 1456 1453 1450 1448 1444 1441 1437 1432 1427 1420 1414 1407 1398 1389
1522 1521 1519 1517 1515 1514 1512 1509 1506 1503 1499 1495 1492 1490 1488 1485 1482 1479 1476 1472 1468 1465 1462 1459 1457 1455 1452 1450 1448 1446 1444 1441 1439 1437 1433 1430 1427 1422 1416 1410 1403 1394 1385
1517 1515 1514 1512 1510 1507 1504 1501 1498 1495 1491 1487 1483 1480 1478 1475 1473 1470 1467 1462 1458 1455 1453 1450 1448 1446 1443 1439 1436 1435 1433 1432 1431 1429 1425 1422 1419 1416 1411 1404 1398 1391 1383
1512 1510 1508 1505 1502 1499 1496 1493 1490 1487 1483 1479 1476 1473 1472 1468 1464 1461 1457 1454 1450 1447 1444 1442 1440 1438 1433 1429 1425 1423 1421 1421 1419 1417 1415 1413 1410 1406 1404 1401 1394 1388 1381
1506 1503 1501 1497 1494 1491 1487 1484 1481 1478 1475 1471 1469 1466 1463 1459 1455 1451 1448 1445 1443 1440 1437 1433 1431 1428 1425 1422 1417 1413 1411 1410 1408 1407 1405 1401 1401 1399 1396 1393 1390 1384 1376
1499 1496 1493 1490 1486 1483 1479 1476 1473 1470 1467 1464 1461 1459 1457 1455 1450 1444 1439 1438 1432 1433 1431 1427 1422 1419 1414 1412 1409 1405 1402 1400 1398 1395 1394 1394 1391 1390 1389 1386 1383 1379 1373
1492 1489 1486 1483 1479 1476 1472 1469 1465 1462 1458 1454 1450 1445 1444 1441 1440 1436 1432 1428 1426 1423 1419 1416 1413 1411 1407 1405 1403 1397 1394 1392 1390 1388 1385 1384 1381 1382 1381 1378 1376 1374 1370
1485 1482 1478 1475 1471 1467 1464 1461 1458 1454 1450 1446 1443 1438 1433 1428 1427 1427 1425 1421 1416 1412 1411 1409 1408 1405 1403 1400 1397 1394 1390 1388 1383 1381 1380 1377 1377 1375 1373 1372 1371 1368 1365
1476 1473 1470 1467 1463 1459 1455 1451 1447 1447 1445 1441 1437 1433 1430 1425 1422 1419 1416 1413 1410 1408 1406 1405 1403 1401 1399 1396 1393 1390 1387 1383 1380 1377 1373 1373 1371 1370 1367 1367 1365 1362 1360